Regional Weather Roundup
Issued by NWS

Home | Current Version | Previous Version | Graphics & Text | Print | Product List | Glossary On
Versions: 1 2 3 4 5 6 7 8 9 10 11 12 13 14 15 16 17 18 19 20 21 22 23 24 25 26 27 28 29 30 31 32 33 34 35 36 37 38 39 40 41 42 43 44 45 46 47 48 49 50
000
ASUS43 KOAX 201010
RWRNE

WEATHER ROUNDUP FOR NEBRASKA
NATIONAL WEATHER SERVICE OMAHA NE
500 AM CDT FRI OCT 20 2017

NOTES: SATELLITE DATA IS BEING USED TO AUGMENT CLOUD COVER ABOVE
       12000 FEET.
       "FAIR" INDICATES FEW OR NO CLOUDS BELOW 12,000 FEET WITH NO
       SIGNIFICANT WEATHER AND/OR OBSTRUCTIONS TO VISIBILITY.


NEZ001>004-019>022-054>056-201100-
NEBRASKA PANHANDLE

CITY           SKY/WX    TMP DP  RH WIND       PRES   REMARKS
SCOTTSBLUFF    PTCLDY    44  32  62 E6        29.72F
ALLIANCE       CLEAR     41  39  93 S9        29.72F
CHADRON        CLEAR     54  34  46 SW3       29.67F
GORDON         FAIR      49  43  82 S5        29.71F
KIMBALL        PTCLDY    39  33  78 SW8       29.77F WCI  34
SIDNEY         MOCLDY    43  39  86 S8        29.75F
$$

NEZ057>060-069>072-079>082-201100-
SOUTHWEST NEBRASKA

CITY           SKY/WX    TMP DP  RH WIND       PRES   REMARKS
NORTH PLATTE   PTCLDY    58  46  64 S15       29.78F
IMPERIAL       MOCLDY    55  45  68 S10       29.77F
LEXINGTON      PTCLDY    56  46  69 S12       29.83F
MCCOOK         MOCLDY    57  47  69 S10       29.81F
OGALLALA       MOCLDY    53  45  75 CALM      29.77F
$$

NEZ005>010-023>029-035>040-094-201100-
NORTH CENTRAL NEBRASKA

CITY           SKY/WX    TMP DP  RH WIND       PRES   REMARKS
VALENTINE      PTCLDY    59  43  55 S14       29.72F
AINSWORTH      PTCLDY    54  45  71 S12       29.75F
BROKEN BOW     PTCLDY    52  45  77 SE6       29.81F
O`NEILL        CLEAR     57  47  71 S10       29.80F
ORD            PTCLDY    56  47  71 S8        29.82F
THEDFORD       CLEAR     56  46  67 S10       29.77F
$$

NEZ041-046>049-061>064-073>077-083>087-201100-
SOUTH CENTRAL NEBRASKA

CITY           SKY/WX    TMP DP  RH WIND       PRES   REMARKS
GRAND ISLAND   FAIR      56  50  80 S14       29.88F
AURORA         FAIR      55  49  78 S12G18    29.89F
HASTINGS       FAIR      57  48  72 S14       29.90F
HEBRON         FAIR      58  52  80 S9        29.94S
HOLDREGE       FAIR      57  48  73 S15       29.85F
KEARNEY        FAIR      57  48  72 S17G23    29.86F
YORK             N/A     55  50  82 S12       29.92S
$$

NEZ011>018-030>034-042>045-201100-
NORTHEAST NEBRASKA

CITY           SKY/WX    TMP DP  RH WIND       PRES   REMARKS
NORFOLK        FAIR      58  48  69 S16       29.86F
ALBION         FAIR      57  48  72 S10       29.86F
BLAIR          FAIR      58  51  78 S13       29.96S
COLUMBUS       FAIR      58  49  72 S15G22    29.90F
FREMONT        FAIR      59  49  71 S9        29.94S
TEKAMAH        FAIR      54  48  80 SE7       29.93F
WAYNE          FAIR      57  48  73 S10       29.88F
$$

NEZ050>053-065>068-078-088>093-201100-
SOUTHEAST NEBRASKA

CITY           SKY/WX    TMP DP  RH WIND       PRES   REMARKS
LINCOLN        FAIR      57  51  80 S9        29.95F
OMAHA EPPLEY   MOCLDY    56  50  80 SE12      29.97F
BEATRICE       FAIR      57  53  84 S8        29.97S
FALLS CITY     FAIR      56  52  86 S7        30.01F
NEBRASKA CITY  FAIR      54  54  99 S6        30.00S
PLATTSMOUTH    FAIR      58  54  85 S10       29.98F
$$

NEZ044-045-051>053-067-201100-
OMAHA AREA

CITY           SKY/WX    TMP DP  RH WIND       PRES   REMARKS
OMAHA EPPLEY   MOCLDY    56  50  80 SE12      29.97F
BLAIR          FAIR      58  51  78 S13       29.96S
FREMONT        FAIR      59  49  71 S9        29.94S
MILLARD        FAIR      58  52  80 SE5       29.97S
OFFUTT AFB     FAIR      53  49  89 SE9       29.97F
PLATTSMOUTH    FAIR      58  54  85 S10       29.98F
WAHOO          FAIR      57  50  77 S9        29.95S
$$




USA.gov is the U.S. government's official web portal to all federal, state and local government web resources and services.